TimeCEST,TemperatureF,Dew PointF,Humidity,Sea Level PressureIn,VisibilityMPH,Wind Direction,Wind SpeedMPH,Gust SpeedMPH,PrecipitationIn,Events,Conditions,WindDirDegrees,DateUTC
12:20 AM,62.6,59.0,88,30.15,3.1,Variable,2.3,-,N/A,,Mostly Cloudy,0,2013-10-22 22:20:00
12:50 AM,62.6,59.0,88,30.12,3.1,Variable,2.3,-,N/A,,Mostly Cloudy,0,2013-10-22 22:50:00
1:20 AM,60.8,59.0,94,30.15,2.2,Variable,2.3,-,N/A,,Mostly Cloudy,0,2013-10-22 23:20:00
1:50 AM,62.6,60.8,94,30.12,1.2,Variable,2.3,-,N/A,,Mostly Cloudy,0,2013-10-22 23:50:00
2:20 AM,62.6,62.6,100,30.15,1.2,Variable,1.2,-,N/A,,Mostly Cloudy,0,2013-10-23 00:20:00
2:50 AM,62.6,62.6,100,30.12,0.9,Variable,1.2,-,N/A,,Mostly Cloudy,0,2013-10-23 00:50:00
3:20 AM,62.6,62.6,100,30.12,0.9,Calm,Calm,-,N/A,,Mostly Cloudy,0,2013-10-23 01:20:00
3:50 AM,62.6,60.8,94,30.12,0.9,Variable,2.3,-,N/A,,Mostly Cloudy,0,2013-10-23 01:50:00
4:20 AM,62.6,60.8,94,30.12,0.9,Variable,1.2,-,N/A,,Mostly Cloudy,0,2013-10-23 02:20:00
4:50 AM,62.6,60.8,94,30.12,0.9,Variable,1.2,-,N/A,,Mostly Cloudy,0,2013-10-23 02:50:00
5:20 AM,60.8,59.0,94,30.09,0.9,Variable,1.2,-,N/A,,Mostly Cloudy,0,2013-10-23 03:20:00
5:50 AM,60.8,59.0,94,30.09,1.2,Variable,2.3,-,N/A,,Mostly Cloudy,0,2013-10-23 03:50:00
6:20 AM,60.8,59.0,94,30.09,1.2,Variable,2.3,-,N/A,,Mostly Cloudy,0,2013-10-23 04:20:00
6:50 AM,60.8,59.0,94,30.09,1.1,Variable,3.5,-,N/A,,Mostly Cloudy,0,2013-10-23 04:50:00
7:20 AM,60.8,59.0,94,30.09,1.1,Variable,1.2,-,N/A,,Mostly Cloudy,0,2013-10-23 05:20:00
7:50 AM,60.8,59.0,94,30.09,0.9,Variable,2.3,-,N/A,,Mostly Cloudy,0,2013-10-23 05:50:00
8:20 AM,60.8,59.0,94,30.09,0.9,Variable,2.3,-,N/A,,Mostly Cloudy,0,2013-10-23 06:20:00
8:50 AM,62.6,60.8,94,30.09,0.9,Variable,3.5,-,N/A,,Mostly Cloudy,0,2013-10-23 06:50:00
9:20 AM,62.6,59.0,88,30.12,0.9,Variable,3.5,-,N/A,,Mostly Cloudy,0,2013-10-23 07:20:00
9:50 AM,62.6,60.8,94,30.09,1.2,Variable,3.5,-,N/A,,Mostly Cloudy,0,2013-10-23 07:50:00
10:20 AM,64.4,60.8,88,30.09,1.6,Variable,3.5,-,N/A,,Mostly Cloudy,0,2013-10-23 08:20:00
10:50 AM,64.4,62.6,94,30.12,1.6,Variable,2.3,-,N/A,,Mostly Cloudy,0,2013-10-23 08:50:00
11:20 AM,64.4,60.8,88,30.09,1.9,Variable,2.3,-,N/A,,Mostly Cloudy,0,2013-10-23 09:20:00
11:50 AM,66.2,62.6,88,30.12,2.5,Variable,2.3,-,N/A,,Mostly Cloudy,0,2013-10-23 09:50:00
12:20 PM,66.2,62.6,88,30.12,3.1,Variable,2.3,-,N/A,,Scattered Clouds,0,2013-10-23 10:20:00
12:50 PM,66.2,60.8,83,30.12,4.3,Variable,3.5,-,N/A,,Scattered Clouds,0,2013-10-23 10:50:00
1:20 PM,66.2,60.8,83,30.09,5.0,Variable,3.5,-,N/A,,Scattered Clouds,0,2013-10-23 11:20:00
1:50 PM,66.2,60.8,83,30.09,5.0,SE,61.0,-,N/A,,Scattered Clouds,130,2013-10-23 11:50:00
2:20 PM,66.2,59.0,78,30.09,5.6,Variable,3.5,-,N/A,,Scattered Clouds,0,2013-10-23 12:20:00
2:50 PM,68.0,60.8,78,30.09,5.6,East,4.6,-,N/A,,Scattered Clouds,100,2013-10-23 12:50:00
3:20 PM,66.2,59.0,78,30.09,5.6,ESE,5.8,-,N/A,,Partly Cloudy,110,2013-10-23 13:20:00
3:50 PM,66.2,59.0,78,30.09,5.6,ESE,4.6,-,N/A,,Partly Cloudy,110,2013-10-23 13:50:00
4:20 PM,66.2,59.0,78,30.09,5.6,ESE,4.6,-,N/A,,Mostly Cloudy,120,2013-10-23 14:20:00
4:50 PM,66.2,59.0,78,30.06,5.6,Variable,3.5,-,N/A,,Mostly Cloudy,0,2013-10-23 14:50:00
5:20 PM,66.2,60.8,83,30.06,5.6,East,4.6,-,N/A,,Mostly Cloudy,80,2013-10-23 15:20:00
5:50 PM,66.2,60.8,83,30.06,5.6,ESE,4.6,-,N/A,,Mostly Cloudy,110,2013-10-23 15:50:00
6:20 PM,66.2,60.8,83,30.06,5.6,Variable,3.5,-,N/A,,Mostly Cloudy,0,2013-10-23 16:20:00
6:50 PM,66.2,60.8,83,30.09,5.6,Variable,2.3,-,N/A,,Mostly Cloudy,0,2013-10-23 16:50:00
7:20 PM,64.4,60.8,88,30.06,5.6,Variable,3.5,-,N/A,,Mostly Cloudy,0,2013-10-23 17:20:00
7:50 PM,64.4,62.6,94,30.06,5.6,NE,4.6,-,N/A,,Mostly Cloudy,50,2013-10-23 17:50:00
8:20 PM,64.4,60.8,88,30.06,5.6,Variable,3.5,-,N/A,,Mostly Cloudy,0,2013-10-23 18:20:00
8:50 PM,64.4,60.8,88,30.06,5.6,NE,4.6,-,N/A,,Mostly Cloudy,40,2013-10-23 18:50:00
9:20 PM,64.4,60.8,88,30.06,5.6,NE,5.8,-,N/A,,Mostly Cloudy,50,2013-10-23 19:20:00
9:50 PM,64.4,62.6,94,30.09,5.6,Variable,3.5,-,N/A,,Mostly Cloudy,0,2013-10-23 19:50:00
10:20 PM,66.2,64.4,94,30.09,5.6,East,5.8,-,N/A,,Mostly Cloudy,90,2013-10-23 20:20:00
10:50 PM,66.2,62.6,88,30.09,5.6,Variable,3.5,-,N/A,,Mostly Cloudy,0,2013-10-23 20:50:00
11:20 PM,66.2,64.4,94,30.09,3.7,Variable,3.5,-,N/A,,Mostly Cloudy,0,2013-10-23 21:20:00
11:50 PM,66.2,64.4,94,30.09,3.1,Variable,2.3,-,N/A,,Drizzle,0,2013-10-23 21:50:00